Location: Bernay
(48.6766°N, 2.9386°E)
Time: 18:28:25
(UTC+00:00)

Cosmos 1656 - Pass Details

Date: 12 January 2026
Orbit: 797 x 847 km, 71.1° (Epoch: 16 February)

Event Time Altitude Azimuth Distance (km) Brightness Sun altitude
Rises 18:27:41 0° 333° (NNW) 3,404 7.1 -21.0°
Reaches altitude 10° 18:30:12 10° 338° (NNW) 2,459 6.3 -21.4°
Maximum altitude 18:35:46 59° 58° (ENE) 954 3.6 -22.3°
Enters shadow 18:36:54 49° 103° (ESE) 1,057 3.8 -22.5°
